| time (UTC) | temp F | wind direction | speed knots | gust knots | rain 1hr in | rain 24hr in | rain mn in | humidity % | barometer mb |
| 20260507162045 | 67 | 25 | 1.7 | 3.5 | 0.00 | 0.27 | 0.00 | 51 | 1012.7 |
| 20260507161044 | 67 | 13 | 2.6 | 4.3 | 0.00 | 0.27 | 0.00 | 54 | 1012.8 |
| 20260507160043 | 67 | 350 | 1.7 | 3.5 | 0.00 | 0.28 | 0.00 | 54 | 1012.9 |
| 20260507155042 | 67 | 23 | 2.6 | 3.5 | 0.00 | 0.28 | 0.00 | 53 | 1012.7 |
| 20260507154112 | 67 | 4 | 0.9 | 2.6 | 0.00 | 0.28 | 0.00 | 54 | 1012.7 |
| 20260507153041 | 68 | 161 | 1.7 | 6.1 | 0.00 | 0.29 | 0.00 | 55 | 1012.8 |
| 20260507152040 | 68 | 0 | 5.2 | 8.7 | 0.00 | 0.30 | 0.00 | 53 | 1012.9 |
| 20260507151039 | 68 | 334 | 1.7 | 3.5 | 0.00 | 0.30 | 0.00 | 55 | 1013.0 |
| 20260507150039 | 68 | 338 | 0.9 | 2.6 | 0.00 | 0.30 | 0.00 | 57 | 1013.1 |
| 20260507145038 | 68 | 0 | 2.6 | 3.5 | 0.00 | 0.30 | 0.00 | 55 | 1013.2 |
| 20260507144107 | 68 | 0.0 | 0.0 | 0.00 | 0.30 | 0.00 | 56 | 1013.4 | |
| 20260507143037 | 68 | 0.0 | 0.0 | 0.00 | 0.30 | 0.00 | 57 | 1013.5 | |
| 20260507142036 | 68 | 0.0 | 0.0 | 0.00 | 0.30 | 0.00 | 57 | 1013.5 | |
| 20260507141035 | 68 | 0.0 | 0.0 | 0.00 | 0.30 | 0.00 | 57 | 1013.7 | |
| 20260507140035 | 67 | 0.0 | 0.0 | 0.00 | 0.30 | 0.00 | 57 | 1013.9 | |
| 20260507135054 | 67 | 0.0 | 0.0 | 0.00 | 0.30 | 0.00 | 56 | 1014.0 | |
| 20260507134033 | 68 | 0.0 | 0.0 | 0.00 | 0.30 | 0.00 | 55 | 1014.0 | |
| 20260507133203 | 69 | 0.0 | 0.0 | 0.00 | 0.30 | 0.00 | 58 | 1014.1 | |
| 20260507132132 | 69 | 315 | 3.5 | 4.3 | 0.00 | 0.30 | 0.00 | 56 | 1014.2 |
| 20260507131121 | 69 | 0.0 | 0.0 | 0.00 | 0.31 | 0.00 | 60 | 1014.4 | |
| 20260507130130 | 68 | 0.0 | 0.0 | 0.00 | 0.33 | 0.00 | 58 | 1014.5 | |
| 20260507125059 | 67 | 0.0 | 0.0 | 0.00 | 0.34 | 0.00 | 59 | 1014.7 | |
| 20260507124059 | 67 | 0.0 | 0.0 | 0.00 | 0.34 | 0.00 | 60 | 1014.7 | |
| 20260507123028 | 67 | 0.0 | 0.0 | 0.00 | 0.34 | 0.00 | 60 | 1014.9 | |
| 20260507122117 | 67 | 0.0 | 0.0 | 0.00 | 0.35 | 0.00 | 61 | 1014.9 | |
| 20260507121056 | 67 | 0.0 | 0.0 | 0.00 | 0.35 | 0.00 | 62 | 1015.0 | |
| 20260507120026 | 67 | 0.0 | 0.0 | 0.00 | 0.35 | 0.00 | 62 | 1015.1 | |
| 20260507115055 | 67 | 293 | 3.5 | 3.5 | 0.00 | 0.36 | 0.00 | 61 | 1015.3 |
| 20260507114055 | 66 | 0.0 | 0.0 | 0.00 | 0.36 | 0.00 | 61 | 1015.4 | |
| 20260507113044 | 66 | 338 | 0.9 | 2.6 | 0.00 | 0.36 | 0.00 | 61 | 1015.5 |
| 20260507112053 | 66 | 312 | 1.7 | 3.5 | 0.00 | 0.36 | 0.00 | 61 | 1015.5 |
| 20260507111042 | 65 | 0.0 | 0.0 | 0.00 | 0.36 | 0.00 | 64 | 1015.6 | |
| 20260507110022 | 63 | 48 | 0.9 | 2.6 | 0.00 | 0.36 | 0.00 | 62 | 1015.7 |
| 20260507105041 | 63 | 326 | 0.9 | 2.6 | 0.00 | 0.36 | 0.00 | 63 | 1015.7 |
| 20260507104020 | 64 | 306 | 1.7 | 4.3 | 0.00 | 0.36 | 0.00 | 63 | 1015.7 |
| 20260507103130 | 64 | 324 | 0.9 | 2.6 | 0.00 | 0.36 | 0.00 | 66 | 1015.7 |
| 20260507102019 | 63 | 23 | 0.9 | 2.6 | 0.00 | 0.36 | 0.00 | 67 | 1015.8 |
| 20260507101048 | 61 | 85 | 1.7 | 2.6 | 0.00 | 0.36 | 0.00 | 68 | 1015.9 |
| 20260507100047 | 61 | 0.0 | 0.0 | 0.00 | 0.36 | 0.00 | 67 | 1015.9 | |
| 20260507095137 | 63 | 0.0 | 0.0 | 0.00 | 0.36 | 0.00 | 69 | 1015.9 | |
| 20260507094106 | 62 | 0.0 | 0.0 | 0.00 | 0.36 | 0.00 | 68 | 1016.0 | |
| 20260507093145 | 61 | 0.0 | 0.0 | 0.00 | 0.36 | 0.00 | 70 | 1015.9 | |
| 20260507092044 | 60 | 0.0 | 0.0 | 0.00 | 0.36 | 0.00 | 70 | 1015.9 | |
| 20260507091044 | 61 | 0.0 | 0.0 | 0.00 | 0.36 | 0.00 | 68 | 1015.9 | |
| 20260507090043 | 61 | 0.0 | 0.0 | 0.00 | 0.36 | 0.00 | 68 | 1015.9 | |
| 20260507085143 | 60 | 0.0 | 0.0 | 0.00 | 0.36 | 0.00 | 75 | 1015.9 | |
| 20260507084042 | 58 | 0.0 | 0.0 | 0.00 | 0.36 | 0.00 | 79 | 1015.9 | |
| 20260507083041 | 57 | 0.0 | 0.0 | 0.00 | 0.36 | 0.00 | 80 | 1015.9 | |
| 20260507082210 | 56 | 0.0 | 0.0 | 0.00 | 0.36 | 0.00 | 79 | 1015.9 | |
| 20260507081040 | 55 | 0.0 | 0.0 | 0.00 | 0.36 | 0.00 | 82 | 1015.9 | |
| 20260507080109 | 55 | 0.0 | 0.0 | 0.00 | 0.36 | 0.00 | 81 | 1015.9 | |
| 20260507075108 | 56 | 0.0 | 0.0 | 0.00 | 0.36 | 0.00 | 80 | 1015.9 | |
| 20260507074208 | 56 | 0.0 | 0.0 | 0.00 | 0.36 | 0.00 | 79 | 1015.9 | |
| 20260507073137 | 57 | 0.0 | 0.9 | 0.00 | 0.36 | 0.00 | 81 | 1015.7 | |
| 20260507072136 | 57 | 0.0 | 0.0 | 0.00 | 0.36 | 0.00 | 82 | 1015.7 | |
| 20260507071105 | 56 | 135 | 1.7 | 2.6 | 0.00 | 0.36 | 0.00 | 81 | 1015.7 |
| 20260507070105 | 56 | 0.0 | 0.0 | 0.00 | 0.36 | 0.00 | 83 | 1015.9 | |
| 20260507065034 | 55 | 180 | 0.0 | 0.9 | 0.00 | 0.36 | 0.00 | 83 | 1015.8 |
| 20260507064133 | 55 | 158 | 0.9 | 0.9 | 0.00 | 0.36 | 0.00 | 83 | 1015.7 |
| 20260507063103 | 55 | 180 | 0.9 | 0.9 | 0.00 | 0.36 | 0.00 | 84 | 1015.7 |
| 20260507062032 | 55 | 0.0 | 0.9 | 0.00 | 0.36 | 0.00 | 85 | 1015.7 | |
| 20260507061031 | 53 | 180 | 0.9 | 0.9 | 0.00 | 0.36 | 0.00 | 86 | 1015.7 |
| 20260507060051 | 51 | 180 | 1.7 | 2.6 | 0.00 | 0.36 | 0.00 | 87 | 1015.7 |
| 20260507055100 | 49 | 245 | 0.9 | 2.6 | 0.00 | 0.36 | 0.00 | 87 | 1015.6 |
| 20260507054029 | 49 | 248 | 0.9 | 2.6 | 0.00 | 0.36 | 0.00 | 87 | 1015.6 |
| 20260507053029 | 49 | 203 | 0.9 | 0.9 | 0.00 | 0.36 | 0.00 | 86 | 1015.5 |
| 20260507052028 | 49 | 0.0 | 0.0 | 0.00 | 0.36 | 0.00 | 86 | 1015.4 | |
| 20260507051027 | 49 | 203 | 0.0 | 0.9 | 0.00 | 0.36 | 0.00 | 87 | 1015.5 |
| 20260507050056 | 48 | 203 | 0.0 | 0.9 | 0.00 | 0.36 | 0.00 | 86 | 1015.3 |
| 20260507045056 | 48 | 203 | 0.0 | 0.9 | 0.00 | 0.36 | 0.00 | 86 | 1015.3 |
| 20260507044025 | 48 | 188 | 1.7 | 3.5 | 0.00 | 0.36 | 0.00 | 86 | 1015.2 |
| 20260507043104 | 48 | 248 | 0.0 | 0.9 | 0.00 | 0.36 | 0.00 | 86 | 1015.2 |
| 20260507042054 | 48 | 248 | 0.9 | 2.6 | 0.00 | 0.36 | 0.00 | 86 | 1015.2 |
| 20260507041123 | 48 | 0.0 | 0.0 | 0.00 | 0.36 | 0.00 | 86 | 1015.1 | |
| 20260507040242 | 48 | 248 | 0.0 | 0.9 | 0.00 | 0.36 | 0.00 | 86 | 1015.1 |
| 20260507035122 | 48 | 0.0 | 0.0 | 0.00 | 0.36 | 0.00 | 86 | 1015.1 | |
| 20260507034051 | 49 | 0.0 | 0.0 | 0.00 | 0.36 | 0.00 | 85 | 1015.1 | |
| 20260507033140 | 49 | 248 | 0.0 | 0.9 | 0.00 | 0.36 | 0.00 | 86 | 1015.2 |
| 20260507032049 | 49 | 248 | 0.0 | 0.9 | 0.00 | 0.36 | 0.00 | 86 | 1015.1 |
| 20260507031059 | 49 | 248 | 0.0 | 0.9 | 0.00 | 0.36 | 0.00 | 86 | 1015.1 |
| 20260507030118 | 49 | 269 | 0.9 | 3.5 | 0.00 | 0.36 | 0.00 | 86 | 1015.2 |
| 20260507025047 | 49 | 276 | 1.7 | 4.3 | 0.00 | 0.36 | 0.00 | 86 | 1015.2 |
| 20260507024127 | 49 | 281 | 1.7 | 3.5 | 0.00 | 0.36 | 0.00 | 86 | 1015.2 |
| 20260507023046 | 49 | 266 | 1.7 | 3.5 | 0.00 | 0.36 | 0.00 | 86 | 1015.3 |
| 20260507022215 | 49 | 270 | 2.6 | 3.5 | 0.00 | 0.36 | 0.00 | 87 | 1015.3 |
| 20260507021044 | 49 | 274 | 2.6 | 3.5 | 0.00 | 0.36 | 0.00 | 87 | 1015.3 |
| 20260507020044 | 49 | 266 | 1.7 | 2.6 | 0.00 | 0.36 | 0.00 | 86 | 1015.3 |
| 20260507015113 | 49 | 270 | 1.7 | 2.6 | 0.00 | 0.36 | 0.00 | 86 | 1015.3 |
| 20260507014042 | 50 | 263 | 1.7 | 3.5 | 0.00 | 0.36 | 0.00 | 85 | 1015.5 |
| 20260507013041 | 50 | 270 | 2.6 | 4.3 | 0.00 | 0.36 | 0.00 | 85 | 1015.5 |
| 20260507012040 | 50 | 292 | 3.5 | 7.0 | 0.00 | 0.36 | 0.00 | 86 | 1015.5 |
| 20260507011040 | 50 | 274 | 3.5 | 6.1 | 0.00 | 0.36 | 0.00 | 86 | 1015.5 |
| 20260507010039 | 50 | 293 | 3.5 | 7.0 | 0.00 | 0.36 | 0.00 | 85 | 1015.6 |
| 20260507005039 | 50 | 275 | 3.5 | 7.0 | 0.00 | 0.36 | 0.00 | 85 | 1015.7 |
| 20260507004038 | 50 | 272 | 2.6 | 4.3 | 0.00 | 0.36 | 0.00 | 86 | 1015.8 |
| 20260507003037 | 50 | 273 | 2.6 | 4.3 | 0.00 | 0.36 | 0.00 | 86 | 1015.9 |
| 20260507002036 | 50 | 277 | 2.6 | 4.3 | 0.00 | 0.36 | 0.00 | 86 | 1015.9 |
| 20260507001035 | 50 | 281 | 3.5 | 6.1 | 0.00 | 0.37 | 0.00 | 86 | 1015.9 |
| 20260507000035 | 50 | 274 | 3.5 | 6.1 | 0.00 | 0.37 | 0.00 | 86 | 1015.9 |
| 20260506235126 | 50 | 268 | 2.6 | 3.5 | 0.00 | 0.37 | 0.00 | 86 | 1015.9 |
| 20260506234034 | 50 | 262 | 2.6 | 3.5 | 0.00 | 0.37 | 0.00 | 86 | 1015.9 |
| 20260506233033 | 50 | 266 | 2.6 | 6.1 | 0.00 | 0.37 | 0.00 | 86 | 1015.9 |
| 20260506232032 | 51 | 279 | 3.5 | 7.0 | 0.00 | 0.37 | 0.00 | 86 | 1015.9 |
| 20260506231031 | 51 | 284 | 4.3 | 7.0 | 0.00 | 0.37 | 0.00 | 87 | 1015.9 |
| 20260506230031 | 51 | 281 | 4.3 | 8.7 | 0.00 | 0.37 | 0.00 | 88 | 1015.8 |
| 20260506225030 | 51 | 283 | 3.5 | 6.1 | 0.00 | 0.37 | 0.00 | 88 | 1015.8 |
| 20260506224059 | 51 | 273 | 3.5 | 6.1 | 0.00 | 0.37 | 0.00 | 88 | 1015.8 |
| 20260506223048 | 51 | 273 | 2.6 | 4.3 | 0.00 | 0.37 | 0.00 | 88 | 1015.8 |
| 20260506222028 | 51 | 258 | 2.6 | 4.3 | 0.00 | 0.37 | 0.00 | 88 | 1015.8 |
| 20260506221027 | 52 | 270 | 0.9 | 2.6 | 0.00 | 0.37 | 0.00 | 88 | 1015.8 |
| 20260506220117 | 52 | 0.0 | 0.0 | 0.00 | 0.37 | 0.00 | 88 | 1015.7 | |
| 20260506215025 | 52 | 270 | 0.0 | 0.9 | 0.00 | 0.37 | 0.37 | 89 | 1015.7 |
| 20260506214025 | 52 | 281 | 1.7 | 3.5 | 0.00 | 0.37 | 0.37 | 89 | 1015.8 |
| 20260506213024 | 52 | 318 | 1.7 | 3.5 | 0.00 | 0.37 | 0.37 | 89 | 1015.7 |
| 20260506212023 | 52 | 338 | 0.9 | 2.6 | 0.10 | 0.37 | 0.37 | 89 | 1015.6 |
| 20260506211053 | 52 | 330 | 2.6 | 8.7 | 0.11 | 0.37 | 0.37 | 89 | 1015.7 |
| 20260506210052 | 52 | 343 | 1.7 | 3.5 | 0.11 | 0.37 | 0.37 | 89 | 1015.7 |
| 20260506205021 | 52 | 336 | 1.7 | 4.3 | 0.13 | 0.37 | 0.37 | 88 | 1015.6 |
| 20260506204022 | 53 | 355 | 1.7 | 4.3 | 0.15 | 0.37 | 0.37 | 88 | 1015.4 |
| 20260506203020 | 53 | 0.0 | 0.0 | 0.16 | 0.37 | 0.37 | 87 | 1015.3 | |
| 20260506202049 | 54 | 0.0 | 0.0 | 0.07 | 0.26 | 0.26 | 85 | 1015.0 | |
| 20260506201138 | 54 | 0.0 | 0.0 | 0.16 | 0.25 | 0.25 | 85 | 1014.9 | |
| 20260506200418 | 54 | 0.0 | 0.0 | 0.16 | 0.25 | 0.25 | 85 | 1014.9 | |
| 20260506195147 | 55 | 0.0 | 0.0 | 0.14 | 0.23 | 0.23 | 84 | 1014.8 | |
| 20260506194047 | 55 | 0.0 | 0.0 | 0.12 | 0.21 | 0.21 | 84 | 1014.7 | |
| 20260506193246 | 55 | 0.0 | 0.0 | 0.11 | 0.20 | 0.20 | 84 | 1014.5 | |
| 20260506192045 | 55 | 165 | 0.9 | 2.6 | 0.10 | 0.19 | 0.19 | 83 | 1014.3 |
| 20260506191104 | 55 | 0 | 0.0 | 0.9 | 0.00 | 0.09 | 0.09 | 83 | 1014.2 |
| 20260506190044 | 55 | 0 | 0.0 | 0.9 | 0.00 | 0.09 | 0.09 | 83 | 1014.1 |
| 20260506185043 | 54 | 338 | 0.0 | 2.6 | 0.00 | 0.09 | 0.09 | 83 | 1014.0 |
| 20260506184043 | 55 | 338 | 0.9 | 2.6 | 0.00 | 0.09 | 0.09 | 82 | 1013.9 |
| 20260506183102 | 55 | 0.0 | 0.0 | 0.00 | 0.09 | 0.09 | 82 | 1013.8 | |
| 20260506182041 | 55 | 11 | 1.7 | 6.1 | 0.00 | 0.09 | 0.09 | 82 | 1013.9 |
| 20260506181120 | 55 | 335 | 0.9 | 2.6 | 0.00 | 0.09 | 0.09 | 82 | 1013.7 |
| 20260506180059 | 55 | 345 | 1.7 | 4.3 | 0.00 | 0.09 | 0.09 | 81 | 1013.8 |
| 20260506175039 | 55 | 351 | 0.9 | 2.6 | 0.00 | 0.09 | 0.09 | 81 | 1013.7 |
| 20260506174038 | 55 | 347 | 2.6 | 4.3 | 0.00 | 0.09 | 0.09 | 80 | 1013.5 |
| 20260506173037 | 56 | 332 | 3.5 | 6.1 | 0.00 | 0.09 | 0.09 | 79 | 1013.6 |
| 20260506172037 | 56 | 336 | 2.6 | 8.7 | 0.00 | 0.09 | 0.09 | 80 | 1013.5 |
| 20260506171106 | 56 | 347 | 3.5 | 7.0 | 0.00 | 0.10 | 0.09 | 80 | 1013.3 |
| 20260506170035 | 57 | 335 | 3.5 | 10.4 | 0.01 | 0.10 | 0.09 | 80 | 1013.3 |
| 20260506165034 | 57 | 323 | 0.9 | 2.6 | 0.01 | 0.11 | 0.09 | 80 | 1013.1 |
| 20260506164104 | 56 | 5 | 2.6 | 6.1 | 0.01 | 0.11 | 0.09 | 79 | 1013.0 |
| 20260506163033 | 56 | 338 | 0.9 | 3.5 | 0.02 | 0.12 | 0.09 | 80 | 1013.1 |